When you browse on this site, cookies collect data to enhance your experience and personalize the content and advertising you see.
Visit our Privacy Policy to learn more. By continuing to use the site, you agree to this use of cookies and data.
  • In Hungary
  • List of Countries
  • For 7 days
  • Water Temperature
  • Satellite Maps
  • Weather Map
  • News
  • Weather Widgets
  • user-avatar
    Login

    Hourly Weather Lubliniec

    Today, 20 June, Thursday

    Time Temperature Precipitation Wind Pressure Humidity
    00:00 +19°C° 0.1 mm 2 mps 735 mmHg 82%
    01:00 +19°C° 0 mm 3 mps 735 mmHg 81%
    02:00 +19°C° 0 mm 3 mps 735 mmHg 84%
    03:00 +18°C° 0 mm 3 mps 735 mmHg 86%
    04:00 +18°C° 0 mm 2 mps 735 mmHg 88%
    05:00 +19°C° 0 mm 3 mps 735 mmHg 83%
    06:00 +21°C° 0 mm 3 mps 735 mmHg 79%
    07:00 +22°C° 0 mm 3 mps 736 mmHg 73%
    08:00 +25°C° 0 mm 3 mps 736 mmHg 66%
    09:00 +26°C° 0 mm 3 mps 736 mmHg 59%
    10:00 +28°C° 0 mm 3 mps 736 mmHg 53%
    11:00 +28°C° 0 mm 3 mps 736 mmHg 50%
    12:00 +29°C° 0 mm 3 mps 736 mmHg 47%
    13:00 +30°C° 0 mm 3 mps 736 mmHg 45%
    14:00 +30°C° 0 mm 2 mps 736 mmHg 44%
    15:00 +30°C° 0 mm 1 mps 735 mmHg 43%
    16:00 +30°C° 0 mm 1 mps 735 mmHg 42%
    17:00 +29°C° 0 mm 1 mps 735 mmHg 49%
    18:00 +27°C° 0 mm 1 mps 735 mmHg 56%
    19:00 +26°C° 0 mm 1 mps 736 mmHg 63%
    20:00 +24°C° 0.5 mm 1 mps 736 mmHg 71%
    21:00 +22°C° 0.5 mm 1 mps 736 mmHg 79%
    22:00 +20°C° 0.5 mm 1 mps 736 mmHg 88%
    23:00 +20°C° 0.4 mm 1 mps 736 mmHg 88%

    Tomorrow, 21 June, Friday

    Time Temperature Precipitation Wind Pressure Humidity
    00:00 +20°C° 0.4 mm 1 mps 736 mmHg 89%
    01:00 +19°C° 0.4 mm 1 mps 737 mmHg 90%
    02:00 +19°C° 0 mm 1 mps 737 mmHg 90%
    03:00 +19°C° 0 mm 1 mps 737 mmHg 90%
    04:00 +18°C° 0 mm 1 mps 737 mmHg 90%
    05:00 +19°C° 0 mm 2 mps 737 mmHg 86%
    06:00 +20°C° 0 mm 2 mps 738 mmHg 83%
    07:00 +21°C° 0 mm 2 mps 738 mmHg 79%
    08:00 +24°C° 0 mm 2 mps 738 mmHg 71%
    09:00 +26°C° 0 mm 2 mps 739 mmHg 63%
    10:00 +27°C° 0 mm 3 mps 739 mmHg 55%
    11:00 +28°C° 0.2 mm 3 mps 739 mmHg 54%
    12:00 +28°C° 0.2 mm 3 mps 739 mmHg 52%
    13:00 +29°C° 0.2 mm 3 mps 739 mmHg 51%
    14:00 +28°C° 0.6 mm 3 mps 738 mmHg 55%
    15:00 +27°C° 0.6 mm 3 mps 738 mmHg 60%
    16:00 +26°C° 0.6 mm 3 mps 738 mmHg 64%
    17:00 +25°C° 0.7 mm 2 mps 738 mmHg 69%
    18:00 +24°C° 0.7 mm 2 mps 738 mmHg 75%
    19:00 +24°C° 0.7 mm 2 mps 739 mmHg 80%
    20:00 +21°C° 0.4 mm 2 mps 739 mmHg 83%
    21:00 +20°C° 0.4 mm 2 mps 739 mmHg 86%
    22:00 +19°C° 0.4 mm 2 mps 740 mmHg 89%
    23:00 +19°C° 0 mm 2 mps 740 mmHg 91%

    Day after tomorrow, 22 June, Saturday

    Time Temperature Precipitation Wind Pressure Humidity
    00:00 +18°C° 0 mm 2 mps 740 mmHg 92%
    01:00 +18°C° 0 mm 2 mps 740 mmHg 94%
    02:00 +18°C° 0 mm 2 mps 740 mmHg 95%
    03:00 +17°C° 0 mm 3 mps 741 mmHg 96%
    04:00 +17°C° 0 mm 3 mps 741 mmHg 97%
    05:00 +17°C° 0 mm 3 mps 741 mmHg 95%
    06:00 +18°C° 0 mm 3 mps 741 mmHg 93%
    07:00 +19°C° 0 mm 3 mps 742 mmHg 91%
    08:00 +19°C° 0 mm 3 mps 742 mmHg 88%
    09:00 +20°C° 0 mm 4 mps 742 mmHg 86%
    10:00 +20°C° 0 mm 4 mps 742 mmHg 83%
    11:00 +21°C° 0 mm 4 mps 742 mmHg 79%
    12:00 +22°C° 0 mm 4 mps 741 mmHg 75%
    13:00 +22°C° 0 mm 5 mps 741 mmHg 71%
    14:00 +23°C° 0 mm 5 mps 741 mmHg 71%
    15:00 +23°C° 0 mm 5 mps 741 mmHg 71%
    16:00 +23°C° 0 mm 4 mps 741 mmHg 71%
    17:00 +22°C° 0.7 mm 4 mps 741 mmHg 75%
    18:00 +21°C° 0.7 mm 4 mps 741 mmHg 80%
    19:00 +20°C° 0.7 mm 3 mps 741 mmHg 84%
    20:00 +20°C° 1.4 mm 4 mps 741 mmHg 86%
    21:00 +19°C° 1.4 mm 4 mps 741 mmHg 89%
    22:00 +19°C° 1.4 mm 4 mps 741 mmHg 91%
    23:00 +18°C° 0.1 mm 4 mps 741 mmHg 91%

    23 June, Sunday

    Time Temperature Precipitation Wind Pressure Humidity
    00:00 +18°C° 0.1 mm 4 mps 741 mmHg 91%
    01:00 +18°C° 0.1 mm 3 mps 741 mmHg 91%
    02:00 +17°C° 0.3 mm 4 mps 741 mmHg 91%
    03:00 +17°C° 0.3 mm 4 mps 741 mmHg 91%
    04:00 +15°C° 0.3 mm 5 mps 741 mmHg 92%
    05:00 +15°C° 0.1 mm 5 mps 741 mmHg 90%
    06:00 +15°C° 0.1 mm 4 mps 741 mmHg 88%
    07:00 +15°C° 0.1 mm 4 mps 741 mmHg 86%
    08:00 +17°C° 0 mm 4 mps 741 mmHg 81%
    09:00 +19°C° 0 mm 4 mps 742 mmHg 76%
    10:00 +21°C° 0 mm 5 mps 742 mmHg 72%
    11:00 +22°C° 0 mm 5 mps 742 mmHg 69%
    12:00 +23°C° 0 mm 5 mps 742 mmHg 66%
    13:00 +25°C° 0 mm 5 mps 742 mmHg 64%
    14:00 +25°C° 0.2 mm 5 mps 742 mmHg 64%
    15:00 +25°C° 0.2 mm 5 mps 742 mmHg 65%
    16:00 +26°C° 0.2 mm 5 mps 742 mmHg 65%
    17:00 +25°C° 0.2 mm 5 mps 742 mmHg 68%
    18:00 +23°C° 0.2 mm 4 mps 742 mmHg 72%
    19:00 +22°C° 0.2 mm 4 mps 742 mmHg 75%
    20:00 +21°C° 0 mm 4 mps 742 mmHg 78%
    21:00 +19°C° 0 mm 3 mps 743 mmHg 81%
    22:00 +18°C° 0 mm 3 mps 743 mmHg 85%
    23:00 +18°C° 0 mm 3 mps 743 mmHg 87%

    24 June, Monday

    Time Temperature Precipitation Wind Pressure Humidity
    00:00 +17°C° 0 mm 3 mps 743 mmHg 89%
    01:00 +17°C° 0 mm 3 mps 744 mmHg 91%
    02:00 +17°C° 0 mm 3 mps 744 mmHg 92%
    03:00 +16°C° 0 mm 3 mps 743 mmHg 93%
    04:00 +16°C° 0 mm 3 mps 743 mmHg 94%
    05:00 +17°C° 0 mm 3 mps 744 mmHg 90%
    06:00 +18°C° 0 mm 3 mps 744 mmHg 87%
    07:00 +19°C° 0 mm 3 mps 744 mmHg 83%
    08:00 +20°C° 0 mm 3 mps 745 mmHg 82%
    09:00 +21°C° 0 mm 3 mps 745 mmHg 80%
    10:00 +21°C° 0 mm 3 mps 745 mmHg 79%
    11:00 +22°C° 0 mm 4 mps 745 mmHg 76%
    12:00 +23°C° 0 mm 4 mps 745 mmHg 74%
    13:00 +25°C° 0 mm 4 mps 745 mmHg 72%
    14:00 +25°C° 0.1 mm 4 mps 745 mmHg 70%
    15:00 +26°C° 0.1 mm 4 mps 745 mmHg 69%
    16:00 +26°C° 0.1 mm 3 mps 745 mmHg 68%
    17:00 +25°C° 0.1 mm 3 mps 745 mmHg 73%
    18:00 +25°C° 0.1 mm 3 mps 745 mmHg 78%
    19:00 +24°C° 0.1 mm 2 mps 745 mmHg 83%
    20:00 +23°C° 0 mm 2 mps 745 mmHg 87%
    21:00 +21°C° 0 mm 2 mps 745 mmHg 91%
    22:00 +20°C° 0 mm 2 mps 746 mmHg 95%
    23:00 +20°C° 0 mm 2 mps 746 mmHg 96%

    25 June, Tuesday

    Time Temperature Precipitation Wind Pressure Humidity
    00:00 +20°C° 0 mm 3 mps 746 mmHg 96%
    01:00 +19°C° 0 mm 3 mps 746 mmHg 97%
    02:00 +19°C° 0 mm 3 mps 746 mmHg 97%
    03:00 +19°C° 0 mm 3 mps 746 mmHg 97%
    04:00 +19°C° 0 mm 3 mps 746 mmHg 97%
    05:00 +20°C° 0 mm 3 mps 746 mmHg 92%
    06:00 +22°C° 0 mm 3 mps 746 mmHg 86%
    07:00 +24°C° 0 mm 3 mps 746 mmHg 81%
    08:00 +26°C° 0 mm 3 mps 747 mmHg 73%
    09:00 +27°C° 0 mm 3 mps 747 mmHg 66%
    10:00 +29°C° 0 mm 4 mps 747 mmHg 58%
    11:00 +30°C° 0 mm 4 mps 747 mmHg 56%
    12:00 +30°C° 0 mm 4 mps 747 mmHg 53%
    13:00 +32°C° 0 mm 4 mps 746 mmHg 51%
    14:00 +32°C° 0.3 mm 4 mps 746 mmHg 54%
    15:00 +30°C° 0.3 mm 4 mps 746 mmHg 57%
    16:00 +30°C° 0.3 mm 4 mps 746 mmHg 60%
    17:00 +29°C° 0 mm 3 mps 746 mmHg 65%
    18:00 +28°C° 0 mm 3 mps 746 mmHg 70%
    19:00 +27°C° 0 mm 3 mps 746 mmHg 75%
    20:00 +25°C° 0 mm 2 mps 746 mmHg 80%
    21:00 +24°C° 0 mm 2 mps 746 mmHg 85%
    22:00 +23°C° 0 mm 2 mps 746 mmHg 90%
    23:00 +21°C° 0 mm 2 mps 746 mmHg 92%
    Show more